Theta_e
344 348 350 349 348 350 350 351 351 352 351 349 349 351 350 350 350 349 348 348 348 348 347 347 347 346 346 346 345 345 345 344 343 342 342 343 343 343 344 344 344 344 345 346 346 346 348 349 348 350 350 351 351 351 349 351 350 350 347 348 349 351 352 352 353 353 352 351 351 352 352 351 350 351 351 351 352 352 351 351 350 348 349 350 352
347 349 348 352 347 348 350 351 351 351 351 349 349 350 350 350 350 349 348 348 348 347 347 347 346 346 346 345 344 344 343 344 344 343 342 342 342 343 343 344 344 344 345 345 346 346 347 348 349 349 350 350 350 350 350 350 350 347 346 344 348 351 352 353 352 351 351 350 350 351 351 350 350 350 350 351 351 351 350 350 350 349 349 351 351
350 349 348 350 346 347 350 351 351 352 351 349 350 349 350 350 350 349 349 348 347 346 346 346 345 346 345 344 344 343 343 343 343 343 343 343 342 343 342 344 344 344 344 345 345 345 346 348 349 349 349 350 350 350 350 349 347 347 346 344 348 351 352 353 351 350 350 350 350 349 347 349 350 350 350 350 351 351 349 349 349 349 349 351 351
343 347 347 349 344 346 348 350 351 351 351 350 350 349 349 349 349 349 348 347 347 347 346 345 345 345 344 344 343 343 342 342 342 342 342 342 342 342 343 343 343 344 344 344 345 346 345 347 348 349 349 351 350 350 350 349 348 347 347 347 349 351 352 351 350 349 349 349 348 346 347 348 348 350 350 350 350 349 348 349 349 351 351 352 352
341 345 346 349 347 345 346 348 350 351 351 350 349 349 349 349 349 349 349 348 347 347 346 346 345 343 343 344 344 343 342 342 341 342 343 343 343 342 342 343 343 344 344 345 345 345 345 347 347 348 348 351 351 350 348 348 347 347 345 347 349 351 352 350 349 349 348 346 346 345 345 347 348 349 350 350 350 348 348 350 351 351 350 350 350
341 341 345 347 348 348 344 347 349 350 350 350 349 349 348 348 348 348 348 347 347 347 346 346 345 344 344 343 343 343 342 342 342 343 343 344 344 343 343 343 344 344 344 344 344 344 344 346 347 349 349 351 350 349 347 348 347 346 345 347 349 351 350 349 349 348 347 345 344 346 344 346 347 348 349 350 349 349 350 351 351 350 350 350 350
342 342 343 345 347 347 342 346 348 349 349 350 350 349 348 348 348 348 348 348 347 347 347 346 345 344 344 344 344 343 343 343 342 344 344 342 342 344 345 344 345 345 345 344 344 344 344 345 347 347 347 350 350 349 348 347 346 346 347 347 349 350 350 349 348 347 345 344 346 343 343 345 346 347 348 349 350 350 350 350 351 350 349 349 349
341 345 344 344 347 344 342 346 347 348 349 349 350 349 348 348 347 347 348 347 347 347 347 346 345 345 345 344 344 344 344 344 344 344 344 344 343 345 346 345 345 346 346 346 346 345 344 344 346 346 347 349 350 349 348 347 347 345 347 347 347 350 349 348 347 345 344 345 346 342 343 344 346 347 348 348 350 350 349 349 349 349 349 348 346
339 341 341 343 346 341 342 345 346 347 349 349 349 349 348 347 348 348 347 347 347 347 347 346 346 346 345 345 345 344 345 346 347 347 345 344 345 346 346 346 346 347 348 348 348 347 345 345 345 346 347 349 348 349 347 347 347 347 346 345 347 350 348 347 345 343 343 344 342 341 343 343 346 345 348 348 349 349 348 348 348 348 348 348 345
335 340 341 342 344 339 340 342 345 346 347 348 349 348 347 347 347 347 347 347 347 346 346 346 346 346 345 345 345 345 345 345 346 346 345 345 345 345 345 346 346 347 347 348 348 348 347 346 345 346 347 348 347 346 347 347 347 347 346 345 348 349 347 346 344 342 342 344 341 342 344 342 344 345 347 348 348 348 348 344 344 344 346 345 345
333 338 341 341 344 337 342 341 341 343 346 347 348 348 347 347 347 347 347 347 347 346 345 346 345 345 344 345 344 344 346 346 345 345 345 344 344 344 344 345 346 346 347 348 349 349 348 347 346 346 347 347 347 346 345 347 346 345 344 346 348 347 347 344 341 344 342 341 340 342 342 341 344 345 349 348 347 348 345 343 342 343 346 347 348
328 336 340 340 337 335 337 338 339 341 343 345 346 346 346 346 346 347 347 347 346 346 346 345 344 344 344 344 344 344 346 345 344 344 344 344 343 343 343 345 346 346 347 348 348 349 348 347 347 346 346 347 345 345 345 346 346 345 345 345 346 346 345 342 343 342 343 340 340 342 342 341 342 345 349 348 348 347 344 344 345 347 348 348 348
329 335 339 339 341 334 335 336 338 340 342 344 345 345 346 346 346 346 346 346 346 346 345 344 344 344 345 345 344 344 344 345 344 344 344 343 343 343 344 345 346 346 346 347 347 349 348 348 347 347 346 347 346 345 343 345 345 344 342 346 345 344 342 339 343 341 340 341 341 343 343 343 343 347 348 348 348 347 347 347 348 348 349 349 349
329 334 338 338 338 334 333 334 336 338 340 342 344 344 345 345 345 346 346 346 346 345 345 344 344 344 344 344 344 344 343 344 344 344 344 343 342 343 343 344 345 346 346 347 347 348 348 348 347 347 347 346 345 343 342 344 344 343 344 345 344 343 339 337 339 340 339 341 342 343 342 342 345 347 348 348 347 348 347 347 347 347 343 345 345
331 334 339 338 336 336 329 332 333 335 337 340 341 342 343 343 344 345 345 345 345 345 345 344 344 343 343 344 344 344 343 344 343 344 343 342 342 343 344 344 345 345 346 346 346 346 347 348 348 347 347 345 344 343 343 344 343 342 343 344 342 340 337 341 341 339 340 341 342 342 343 342 345 348 347 348 348 347 347 346 346 344 344 345 345
334 334 337 337 336 336 336 330 330 332 333 336 338 339 341 341 342 343 344 344 344 344 344 344 343 344 343 343 343 343 343 344 343 343 343 342 342 343 343 344 344 344 345 345 346 346 346 345 346 346 346 344 344 344 343 344 343 341 342 342 339 337 334 334 339 339 339 340 341 342 342 343 345 346 347 347 345 346 346 345 346 344 345 345 344
332 334 333 335 337 336 335 336 332 328 329 331 333 335 337 338 340 342 342 343 344 344 343 344 343 343 343 342 342 342 343 343 342 342 341 341 341 342 342 343 343 344 344 345 345 345 345 345 345 346 345 344 344 343 343 343 342 340 340 338 337 335 333 329 339 338 338 341 342 341 342 344 343 345 346 346 345 344 345 345 345 343 342 343 344
332 332 331 332 333 334 334 335 336 334 333 330 328 329 332 335 337 338 339 340 341 343 343 342 342 342 341 340 339 339 339 341 341 341 341 341 341 341 341 341 342 342 343 343 343 343 344 344 344 345 345 344 344 343 343 343 340 340 338 336 335 333 331 327 341 338 339 339 340 342 342 339 341 344 345 345 344 343 345 345 344 343 343 344 343
330 329 330 330 329 331 332 334 334 335 336 335 335 334 328 330 332 334 335 337 339 339 339 340 339 338 339 337 336 334 333 334 335 336 339 337 335 335 337 341 341 342 341 341 341 341 341 343 344 345 344 343 342 342 342 341 339 337 336 335 332 330 328 330 340 339 341 340 340 341 341 339 341 344 345 344 343 342 346 345 343 341 341 341 342
327 328 328 329 330 329 331 332 333 334 335 335 335 335 331 327 330 332 333 334 335 336 337 337 334 331 332 332 330 334 330 333 326 333 330 333 331 331 333 339 340 340 340 339 339 339 340 342 343 343 343 342 342 339 340 340 339 336 334 332 329 325 333 337 341 340 341 341 340 340 338 339 342 344 344 343 343 341 344 343 342 341 341 342 341
315 315 321 322 326 327 328 328 329 331 333 333 334 334 334 328 328 327 328 329 331 332 333 331 327 325 325 325 325 336 338 338 338 337 327 334 326 323 328 336 339 337 336 337 338 339 339 341 340 340 342 341 338 336 334 337 337 335 333 330 324 333 336 340 340 337 339 338 339 340 337 340 342 343 344 344 342 343 342 342 343 342 341 341 340
309 312 315 316 316 318 325 325 325 328 329 331 332 334 335 332 334 336 335 332 329 327 332 337 329 339 326 334 337 336 337 337 337 331 337 335 332 322 325 332 337 335 332 334 337 338 339 340 340 339 339 338 332 335 330 327 330 330 327 323 332 338 338 339 338 338 337 337 337 335 337 341 342 343 343 343 341 342 342 342 341 341 341 340 340
309 310 310 312 313 314 316 320 325 326 326 328 331 333 333 333 332 335 335 332 333 333 336 337 339 339 339 339 335 337 336 336 335 334 336 327 335 322 324 330 334 331 329 331 334 338 338 340 340 338 337 332 332 334 332 330 328 321 319 327 333 335 337 337 337 336 338 338 336 332 336 341 341 342 343 343 340 341 342 341 341 339 339 339 338
305 306 308 312 312 312 314 316 318 323 326 326 328 330 330 331 331 332 333 334 335 337 337 338 338 338 338 338 337 337 336 336 326 320 327 337 332 319 322 326 326 326 324 328 329 333 337 338 337 336 332 330 334 333 332 331 328 326 328 330 333 333 335 336 336 337 337 336 335 331 336 340 341 341 342 341 341 341 341 339 339 339 338 338 338
305 306 306 306 308 310 312 314 316 318 322 325 327 327 330 329 331 332 332 333 335 336 337 337 338 337 337 338 338 337 337 336 338 337 337 336 336 335 334 335 334 335 326 335 335 338 335 338 335 331 331 332 332 331 330 327 327 328 329 332 333 333 334 334 334 336 336 337 333 330 334 338 340 340 341 342 342 340 340 339 339 339 339 338 337
305 304 304 306 308 308 311 312 313 316 319 321 325 325 326 327 328 329 331 333 333 334 335 335 336 337 337 337 337 337 337 335 336 335 335 335 334 334 335 336 334 334 333 333 333 335 334 329 327 324 320 326 330 329 328 327 329 329 331 332 332 332 332 333 333 333 335 333 330 328 332 337 339 340 341 342 342 340 339 338 339 338 337 337 336
303 303 304 305 306 307 309 311 312 314 315 318 321 324 325 326 327 328 329 330 332 332 333 334 335 336 337 336 335 334 334 334 334 334 335 334 334 334 333 335 334 334 333 332 331 331 327 326 326 323 322 321 323 325 326 328 329 329 328 328 328 329 331 330 331 331 333 332 326 326 329 332 338 338 339 341 341 339 339 338 338 337 336 336 335
302 303 303 304 306 307 308 308 310 313 315 317 319 320 323 324 326 327 328 327 330 330 332 334 335 334 335 335 334 334 334 335 333 333 334 333 332 333 334 332 331 332 331 330 329 328 325 325 324 323 324 321 319 319 320 322 323 324 324 325 327 328 328 328 330 332 331 331 330 325 327 330 333 337 339 339 338 338 339 337 338 337 336 336 336
301 301 302 303 304 306 306 307 309 310 312 315 317 321 323 324 324 325 326 325 328 330 330 332 334 333 334 335 336 333 334 333 332 332 332 332 332 332 332 331 331 332 331 328 327 326 325 324 323 323 324 321 320 317 319 320 320 322 323 322 323 324 325 327 329 330 330 331 331 326 325 328 332 334 336 338 340 339 338 337 336 336 337 336 334
300 301 301 301 304 305 306 306 309 309 311 312 313 316 320 321 322 324 325 325 327 329 332 331 332 333 333 333 334 333 332 331 331 331 331 331 331 332 332 329 329 329 330 328 327 326 324 324 322 322 322 321 320 318 318 317 318 318 321 321 322 323 323 326 329 328 328 329 329 325 322 325 329 333 334 335 337 337 338 337 335 335 335 335 334
301 301 302 302 302 302 305 305 307 310 311 311 311 312 316 319 321 322 324 325 328 328 330 332 332 333 332 333 334 332 332 331 329 329 331 330 331 331 332 331 328 328 328 328 327 327 324 324 323 322 321 320 318 318 318 316 316 317 316 320 321 322 322 323 327 327 325 325 326 326 324 321 326 330 331 332 335 336 337 336 335 334 334 334 334
300 300 301 303 303 302 303 305 306 306 308 308 310 311 311 315 320 321 322 324 325 328 328 330 330 332 332 331 331 331 331 330 330 329 330 330 330 329 330 329 326 328 328 326 325 326 325 325 324 323 322 320 318 318 319 317 316 315 315 315 317 319 321 322 324 325 325 323 324 325 325 325 321 325 328 332 333 333 334 334 334 334 334 333 334
301 302 301 301 301 302 303 303 305 305 306 306 308 309 311 312 314 320 321 323 324 326 327 327 329 331 330 330 328 331 329 329 329 331 330 330 330 329 328 327 326 327 328 326 325 324 324 323 322 322 321 321 319 317 317 318 316 314 314 314 316 318 320 322 321 322 323 324 324 324 325 326 326 319 322 326 331 332 332 332 332 332 332 332 333
299 300 299 299 301 302 303 304 304 303 305 306 306 308 309 311 314 315 320 321 322 325 325 327 328 328 331 330 328 328 327 329 328 331 329 330 329 328 328 328 327 327 327 325 324 324 322 321 321 320 317 319 319 317 317 316 316 315 314 314 315 317 318 318 318 319 321 322 324 324 323 325 325 325 325 320 323 327 330 332 331 331 331 331 331
299 299 298 299 299 300 302 302 303 304 304 304 306 307 309 309 309 312 317 320 321 322 325 326 326 327 329 329 327 326 326 328 328 330 325 326 328 327 327 327 327 326 325 324 323 322 322 320 319 319 318 319 319 317 317 316 315 314 315 315 317 318 319 317 317 316 319 320 322 323 322 323 324 324 324 324 315 320 326 330 330 330 330 330 330
297 298 298 298 297 299 300 301 302 302 303 304 305 307 307 308 309 308 310 318 319 321 322 326 327 327 328 329 328 326 326 327 327 327 325 326 327 327 326 327 327 324 322 323 322 321 320 319 319 319 317 317 317 316 317 315 315 314 314 315 317 317 318 316 315 315 318 320 321 322 323 323 323 323 319 322 322 320 321 325 328 329 329 329 329
297 297 297 297 297 297 297 299 300 301 301 302 304 305 307 307 307 308 308 308 311 319 323 324 325 327 325 327 327 327 326 327 327 326 324 325 326 326 326 326 326 324 322 322 321 321 320 318 318 318 318 316 315 315 315 314 314 314 314 315 317 317 315 315 314 313 314 319 320 321 322 322 320 314 322 322 322 322 319 322 325 326 324 327 328
296 296 298 298 297 298 298 297 298 300 301 301 302 303 304 305 307 307 308 307 308 308 316 324 323 323 327 326 327 327 325 325 325 327 325 324 327 326 326 325 323 323 323 322 321 321 320 318 316 317 317 316 315 314 314 314 314 314 313 314 315 316 314 311 311 311 317 320 321 321 321 322 321 322 322 323 322 322 322 320 320 320 317 323 328
296 296 296 297 298 298 298 298 298 298 298 300 301 303 303 303 305 305 305 305 306 307 307 310 320 322 322 324 324 325 324 325 325 325 325 324 325 326 326 323 322 323 322 321 320 319 318 318 316 316 317 316 315 315 315 315 314 314 313 314 315 313 312 309 308 310 315 318 321 321 322 322 322 322 322 321 321 322 322 322 320 320 320 320 326
295 295 296 297 297 297 298 297 297 296 298 298 299 299 300 301 300 300 301 303 304 305 306 307 313 319 320 322 323 324 325 323 325 325 326 323 324 324 323 323 321 322 321 320 319 318 317 317 316 316 316 315 316 316 315 314 313 312 309 309 310 310 309 308 308 309 311 314 317 319 321 321 322 322 321 321 321 322 321 320 317 320 321 320 321
294 294 295 295 294 295 297 297 298 297 296 296 297 298 297 298 299 299 298 300 301 303 304 306 309 314 318 320 322 322 323 324 323 324 324 320 323 324 322 322 322 320 320 319 320 319 319 318 316 315 315 314 314 315 314 314 309 305 307 306 306 308 307 307 308 309 310 310 312 318 319 320 321 321 321 320 320 320 320 319 318 318 319 319 318
292 293 293 293 293 294 294 295 296 297 297 296 296 297 298 298 298 298 298 298 299 300 302 304 306 311 314 317 319 320 324 322 322 324 323 323 322 322 321 320 320 320 319 320 320 317 318 317 315 313 315 313 311 313 313 312 307 304 301 301 302 305 306 307 307 308 308 308 310 315 317 317 319 320 320 319 318 319 319 318 318 318 318 318 319
292 292 293 293 294 293 293 294 294 295 296 296 296 295 297 298 298 299 299 298 300 301 302 304 306 307 313 316 318 320 321 322 323 322 322 323 322 321 320 320 320 320 319 319 319 318 317 315 314 313 311 313 311 312 312 313 308 308 306 303 298 299 301 303 304 305 306 306 308 313 315 316 318 319 319 318 316 318 319 319 318 318 318 318 319
292 292 292 292 292 293 294 294 294 294 295 296 297 296 297 298 299 300 299 299 298 300 301 301 302 302 304 310 314 317 319 319 321 322 321 322 321 320 321 320 320 320 320 319 317 316 317 315 314 313 312 307 309 309 312 313 311 307 302 304 301 302 296 298 300 300 302 304 306 310 312 315 316 316 317 317 316 317 318 319 319 319 319 319 319
291 292 292 292 292 292 293 294 294 295 295 296 296 296 296 296 298 299 300 298 297 298 298 298 299 299 301 305 309 312 313 316 320 324 322 322 321 320 320 319 319 319 319 318 316 316 316 315 314 313 311 309 308 309 310 313 311 312 309 303 299 299 301 300 300 298 301 302 301 306 307 310 313 314 315 316 317 317 317 318 318 319 319 320 319
291 291 292 292 292 292 293 293 293 294 295 295 295 296 295 294 294 295 295 295 294 294 294 295 296 297 298 302 307 310 311 312 315 320 320 320 322 320 319 319 318 317 317 317 317 317 316 315 315 314 312 312 310 308 308 311 312 312 313 308 307 302 301 299 302 293 298 298 297 300 304 306 306 309 312 314 315 316 316 317 317 317 318 317 316
291 292 292 292 292 292 293 293 293 294 295 295 296 295 294 294 293 293 296 295 294 294 296 297 297 298 299 299 302 307 311 312 313 316 320 319 320 320 318 318 318 317 315 316 315 315 316 315 315 314 312 311 311 308 308 309 310 312 312 309 308 307 306 302 302 297 293 296 297 298 299 300 302 304 309 311 313 314 315 316 316 315 314 314 315
291 292 292 292 292 292 292 292 293 293 294 294 294 295 294 294 293 293 293 295 296 295 296 296 298 299 300 299 300 303 307 310 312 314 316 320 318 320 318 318 317 317 314 316 315 315 315 315 314 315 314 312 311 310 309 310 308 309 311 307 307 307 307 308 305 300 297 292 292 296 297 297 299 299 301 307 310 311 312 313 313 312 312 313 313
291 291 291 291 292 292 292 292 292 292 292 294 294 294 294 293 294 293 292 293 296 297 296 297 296 297 298 299 300 301 303 306 308 309 312 318 317 318 317 316 317 315 312 316 316 315 314 314 313 313 311 311 312 312 311 310 311 310 309 306 307 306 307 304 300 297 296 294 293 296 294 296 298 298 298 297 298 304 309 311 310 310 310 310 311
291 292 292 292 292 292 292 292 291 292 292 292 293 293 294 294 293 293 293 292 294 296 297 296 296 297 297 298 299 300 301 302 304 307 308 312 317 317 317 317 316 316 311 315 315 315 314 314 313 313 312 310 311 312 312 312 312 312 310 307 306 305 305 304 301 299 297 300 296 297 297 297 296 292 293 297 298 300 303 304 305 306 307 307 308
291 291 292 291 291 291 290 290 291 292 292 292 292 292 293 293 293 293 293 293 293 294 295 296 295 296 296 297 298 298 299 300 302 304 306 307 313 316 317 316 315 313 311 314 314 315 314 314 313 313 311 310 310 311 310 311 311 309 307 307 306 306 305 304 303 302 300 294 296 296 298 301 301 296 293 296 295 297 300 303 303 302 304 304 304
Wind_Speed
7 5 4 10 6 5 11 11 11 11 12 12 12 12 12 12 11 11 11 11 11 11 12 12 12 11 11 10 10 10 10 10 11 11 10 9 9 10 10 10 10 10 10 11 10 10 10 11 11 11 10 10 10 12 12 13 11 13 13 12 11 12 13 11 11 10 10 10 11 12 12 12 13 13 13 15 15 11 8 8 7 10 10 12 15
2 5 5 7 6 2 9 11 12 11 12 11 12 12 12 12 12 11 11 11 11 11 11 11 11 11 11 11 11 10 10 10 11 11 11 11 10 11 11 11 11 11 11 12 12 12 11 12 12 12 12 11 11 12 14 14 14 11 10 8 9 12 11 10 8 9 7 8 8 9 10 12 13 13 14 15 13 11 8 7 9 9 8 15 16
2 4 4 5 9 3 4 11 12 12 13 12 13 12 12 11 11 11 12 11 11 11 10 10 10 11 11 11 11 11 11 11 11 11 11 12 12 11 12 12 12 12 13 12 12 13 12 12 12 13 13 12 11 13 13 13 14 14 15 15 17 12 11 8 10 10 8 7 7 8 8 10 12 14 15 15 14 8 2 1 7 11 11 17 14
2 3 4 7 9 5 5 6 10 10 11 12 12 12 12 11 11 11 12 12 12 12 11 11 11 11 12 11 11 11 12 12 11 11 12 13 13 13 12 12 13 13 13 13 13 13 13 13 13 13 13 11 10 13 15 14 14 14 11 18 17 14 10 10 11 12 9 7 8 8 7 8 9 13 15 15 12 5 1 8 11 14 17 14 15
3 3 4 5 8 8 7 5 7 11 10 11 12 13 13 11 11 11 12 12 12 13 12 12 12 12 11 11 12 12 12 13 13 12 13 13 13 13 13 14 14 14 14 14 13 13 13 13 13 14 14 11 11 14 15 15 14 14 14 19 16 14 11 12 12 12 10 9 9 9 9 9 8 12 15 14 8 3 6 12 14 17 17 17 17
3 4 4 4 6 9 8 8 6 10 13 12 13 13 13 11 11 12 12 13 13 13 13 12 12 12 12 12 12 12 13 13 13 12 14 13 13 14 13 14 14 14 14 14 13 13 13 13 14 14 15 12 11 13 12 15 16 16 13 16 17 13 12 12 12 12 11 10 12 6 9 10 9 8 14 13 7 5 11 13 15 16 16 17 17
3 3 4 5 4 7 12 9 9 9 12 14 13 13 13 12 12 12 13 13 12 12 13 13 13 13 13 12 13 13 12 12 13 13 14 13 13 14 14 13 14 15 14 14 13 13 13 13 14 14 15 13 12 14 14 17 15 19 21 21 18 15 14 12 12 12 12 10 7 6 8 10 9 7 15 13 10 9 12 15 16 16 17 18 17
3 2 4 4 5 5 11 12 12 11 11 14 14 14 13 13 14 14 14 13 13 14 13 13 13 14 14 14 14 14 13 12 13 13 13 13 14 14 14 15 15 16 15 14 13 13 13 13 13 15 15 11 13 15 16 17 17 17 20 18 17 16 15 13 12 12 14 10 8 7 8 9 9 8 14 15 13 13 15 16 15 16 18 17 12
4 3 4 4 4 2 7 10 12 11 11 14 13 12 12 14 13 13 14 14 14 14 14 15 14 14 14 14 14 14 14 9 7 8 8 6 7 9 12 14 15 15 15 15 14 14 13 14 14 14 16 13 13 16 18 18 18 21 19 19 15 14 16 14 13 12 10 9 9 8 9 10 9 9 14 16 16 16 15 14 13 16 15 11 13
5 4 4 4 4 6 3 3 7 10 12 14 13 12 13 14 14 14 14 15 15 15 15 15 15 16 15 15 15 14 13 6 8 7 6 6 7 9 11 12 14 15 16 16 16 15 14 14 15 14 16 14 16 17 19 20 17 17 20 21 16 15 15 14 12 11 10 10 9 9 8 10 10 9 15 17 17 17 14 10 10 10 9 12 11
7 6 4 4 3 6 2 4 6 10 14 14 13 12 14 15 15 15 16 16 15 15 15 15 16 16 16 16 16 15 8 6 7 8 7 7 9 10 12 13 14 15 15 16 16 16 15 14 14 15 16 14 17 18 18 18 19 17 16 13 13 14 12 14 12 8 10 9 8 8 9 11 8 9 18 19 18 16 10 9 8 9 10 11 16
8 6 5 4 3 5 1 4 9 12 14 14 14 13 15 15 15 16 16 16 17 16 15 16 16 16 17 17 16 15 9 7 8 9 10 10 11 11 12 14 14 14 15 15 15 16 15 16 15 15 15 11 16 18 20 20 20 19 19 15 13 12 13 14 9 8 9 8 9 7 9 10 11 11 20 19 19 17 12 12 12 14 15 18 18
8 6 5 5 5 4 3 6 9 12 15 15 16 16 16 16 16 16 17 17 17 16 17 16 16 16 17 16 16 14 12 9 9 10 11 11 11 12 13 14 14 14 14 15 15 15 15 16 16 15 14 11 18 19 21 20 20 21 21 18 16 14 11 12 8 8 8 7 7 8 9 8 7 15 19 20 20 17 16 16 16 16 16 18 17
9 6 5 5 5 2 5 7 10 13 15 16 17 17 17 17 17 17 17 17 17 17 16 16 17 17 16 16 15 14 13 9 10 11 11 12 12 13 14 14 14 14 14 14 15 15 16 16 16 15 12 13 17 17 20 21 20 22 21 19 18 19 17 13 10 8 6 7 7 8 10 7 7 17 19 20 21 20 19 18 18 17 19 19 19
7 7 6 5 6 6 6 7 10 13 13 14 17 16 17 18 17 17 18 17 17 17 16 16 16 17 17 16 15 15 14 10 11 11 12 12 13 13 14 14 14 15 15 14 14 15 16 16 16 16 11 15 17 20 22 19 19 19 19 21 20 18 18 10 9 7 6 7 8 9 7 6 12 16 19 20 21 22 21 19 18 19 20 21 20
7 8 7 6 7 6 5 7 10 15 14 14 13 14 15 16 18 18 18 17 17 18 17 15 15 16 16 15 16 16 13 11 11 12 12 13 13 13 13 14 14 14 15 15 14 14 15 16 16 12 13 17 20 20 22 18 20 24 20 20 19 17 17 11 8 8 7 8 8 8 7 6 16 17 20 19 20 21 22 19 19 18 19 22 23
7 7 8 8 7 7 7 7 8 12 13 13 13 13 13 13 14 16 18 17 16 16 17 15 14 14 15 15 15 13 11 10 11 12 12 12 13 13 14 14 14 14 15 14 13 12 13 14 14 11 15 19 20 20 20 19 19 20 19 18 16 16 16 3 5 7 8 8 6 7 7 7 13 18 19 20 20 20 22 22 22 20 21 22 23
6 6 8 8 9 9 8 8 7 8 10 12 14 14 14 16 15 14 14 14 14 14 14 13 13 13 12 11 12 12 11 10 10 11 12 11 11 13 14 13 14 13 13 14 13 13 13 13 14 12 16 20 19 21 22 21 21 21 18 17 17 15 12 6 4 5 6 6 8 6 7 11 14 18 20 19 19 21 24 21 21 21 22 22 23
5 6 6 7 10 10 9 8 9 8 8 8 8 12 18 17 16 14 14 15 14 13 13 13 13 12 11 12 11 10 10 10 9 9 10 9 8 9 9 12 12 13 13 11 13 13 12 13 13 14 16 18 16 19 23 21 24 23 21 20 19 16 15 9 7 5 4 6 7 6 6 15 15 20 22 22 20 20 24 24 23 21 23 24 25
4 5 5 6 7 8 9 8 8 8 8 8 8 9 10 17 16 16 16 15 14 13 13 13 12 11 12 13 11 10 9 9 10 9 10 10 9 9 9 11 11 12 11 10 11 12 12 12 13 14 17 19 17 20 22 26 24 25 24 22 19 18 11 8 7 5 5 3 4 4 11 17 19 22 23 23 22 23 24 25 24 24 25 24 22
10 11 9 9 9 9 10 9 10 11 10 9 9 9 10 8 11 15 16 15 14 13 13 13 12 9 10 10 10 9 9 9 9 10 12 11 12 10 9 6 9 5 3 6 10 12 12 12 12 18 16 19 21 24 24 24 29 26 23 21 20 13 10 9 6 6 4 4 4 4 14 14 20 22 23 23 22 22 23 25 25 24 25 25 25
12 11 12 15 14 11 10 11 9 11 11 9 7 7 7 9 11 11 10 13 14 15 12 12 12 12 10 9 9 11 9 10 12 10 10 11 11 11 9 8 7 4 3 7 10 12 13 13 13 17 17 18 17 10 9 11 15 17 14 13 12 9 9 9 8 6 5 4 6 9 12 13 19 21 23 22 21 23 25 25 25 25 23 22 24
13 12 12 15 13 13 13 12 12 12 13 12 9 9 10 9 10 10 10 11 12 13 13 13 13 13 14 12 12 12 12 12 10 8 7 11 10 11 9 8 7 4 3 5 8 13 13 13 14 15 16 17 13 9 9 7 8 15 14 11 8 7 6 5 7 6 6 5 7 14 12 14 19 21 22 23 24 23 22 24 25 24 26 25 25
15 13 13 11 14 13 14 14 14 13 11 11 10 10 11 10 9 9 9 9 10 11 12 13 13 13 13 13 12 13 13 11 4 7 6 5 5 9 9 9 8 6 6 6 6 11 15 14 14 17 14 11 9 9 10 8 8 8 8 8 6 6 6 7 7 7 6 6 7 16 15 15 19 19 23 24 24 23 26 26 25 26 25 24 24
12 13 13 14 16 16 15 13 14 12 12 11 11 10 10 10 10 9 9 9 9 10 11 13 14 15 14 12 13 10 11 11 7 6 6 7 7 7 7 7 7 7 6 5 4 4 8 8 5 7 5 12 12 11 9 10 9 9 8 8 7 5 5 5 5 6 7 7 10 14 14 15 17 20 21 22 25 25 25 26 25 23 24 24 24
13 13 15 15 16 17 16 14 14 14 12 11 11 11 12 11 11 10 10 9 9 11 11 11 11 14 13 12 10 10 9 10 9 8 8 8 8 8 9 7 7 8 6 5 2 3 5 6 7 7 6 3 10 11 11 9 9 9 8 8 7 7 7 6 6 6 7 8 11 14 13 12 18 19 19 22 24 24 25 27 27 25 23 24 23
13 15 15 14 15 18 18 17 15 14 14 12 11 10 10 11 11 10 10 9 9 10 11 11 11 12 13 11 10 9 11 11 9 9 8 8 8 8 7 6 3 6 7 4 5 6 7 7 6 7 9 8 4 9 10 9 8 8 7 7 7 7 7 6 6 5 8 9 10 17 12 11 14 20 21 20 25 26 26 26 25 25 24 23 23
15 16 15 16 15 19 19 18 16 16 14 14 13 11 10 11 11 10 10 11 10 10 11 11 11 12 12 12 11 10 10 7 10 10 9 9 8 8 8 8 7 4 2 4 6 9 7 6 8 9 13 12 8 7 9 7 5 6 7 7 7 5 7 6 4 6 7 9 10 15 14 13 14 15 20 23 23 24 24 24 26 24 25 24 23
17 17 15 16 17 17 19 20 18 18 15 15 13 11 11 11 12 11 11 11 11 11 11 11 11 12 10 11 7 6 8 8 9 10 9 9 8 7 7 8 7 4 7 6 5 7 8 8 7 7 6 10 10 8 6 8 6 4 6 6 6 5 2 6 6 7 7 9 9 12 17 13 13 14 18 20 22 22 21 21 23 27 26 25 24
17 17 17 16 17 18 19 20 18 18 15 14 13 12 12 12 12 13 12 10 12 12 11 10 10 11 10 8 10 11 9 10 10 9 9 10 9 7 6 7 8 6 3 2 4 6 8 7 8 7 7 8 9 10 8 6 8 6 4 5 5 5 3 3 3 6 7 8 9 10 16 16 13 15 17 19 23 26 26 23 21 21 24 24 23
17 17 17 17 16 18 17 19 18 18 17 16 13 14 13 13 12 12 13 13 12 13 10 10 9 8 10 10 9 10 9 9 10 10 9 9 9 9 8 9 8 8 8 6 4 3 6 8 10 10 8 8 8 8 9 7 4 7 5 4 4 3 3 2 2 4 5 7 8 8 12 16 15 17 13 12 19 23 26 26 23 21 22 23 22
16 16 15 15 17 19 18 18 17 17 17 17 15 14 13 13 13 12 13 14 14 11 11 10 9 8 8 11 10 10 9 9 11 10 10 9 10 8 9 7 7 7 9 8 4 5 7 6 8 8 9 9 8 8 10 9 6 4 5 3 2 4 3 3 3 3 4 4 7 8 9 10 14 16 16 15 12 15 18 22 21 20 22 23 23
12 15 17 17 18 17 15 17 16 18 18 18 16 15 14 14 13 12 12 12 13 13 12 11 9 9 9 10 12 12 10 11 10 10 7 9 9 8 9 8 9 9 9 11 9 7 5 6 7 8 8 7 9 8 7 11 10 6 4 2 1 2 3 3 3 4 3 4 4 6 7 8 9 13 16 17 18 16 16 18 21 21 21 21 22
14 13 17 18 15 12 12 12 15 18 17 16 15 14 15 14 13 12 12 12 12 12 13 12 11 10 8 9 10 13 12 12 13 10 10 8 10 12 11 9 9 10 10 10 10 8 8 8 8 10 9 11 10 11 10 10 11 9 7 5 3 3 3 4 3 3 3 3 5 6 6 6 7 8 8 12 13 13 13 14 17 19 20 21 23
15 16 18 19 18 16 12 12 14 16 16 16 16 15 14 14 14 13 13 13 12 13 12 12 14 13 11 8 11 10 12 14 13 10 7 9 9 12 10 9 10 9 8 8 8 5 7 8 10 11 10 10 12 11 12 10 12 12 10 8 9 6 4 4 4 1 3 2 5 6 6 6 6 7 6 6 8 12 15 16 19 19 21 22 21
17 16 16 17 18 18 17 16 16 17 15 16 15 14 14 14 13 14 14 14 12 13 12 10 11 11 12 11 10 12 13 14 14 9 8 13 13 12 10 9 12 11 12 10 9 9 9 8 7 10 12 11 9 9 9 11 12 12 9 8 7 7 7 7 5 1 1 3 5 5 7 5 7 8 9 6 6 9 15 15 15 16 18 20 22
17 17 17 17 18 19 17 18 18 18 17 17 16 15 14 14 14 14 14 15 14 13 11 11 12 12 12 10 11 12 13 13 14 11 10 12 10 13 11 12 12 13 12 12 11 9 9 10 9 8 9 12 11 10 9 9 10 12 10 9 8 7 7 8 9 5 1 3 2 4 7 5 7 8 8 7 7 9 13 16 16 17 18 17 19
15 17 17 17 17 17 16 15 16 16 15 15 15 15 13 14 12 12 13 14 13 13 12 10 10 12 11 12 12 12 12 13 14 12 10 10 10 12 13 12 14 13 13 12 11 11 8 10 11 10 11 12 12 11 10 9 10 10 10 10 9 7 6 5 7 6 5 5 3 6 4 6 7 7 7 7 7 9 9 13 16 15 17 20 21
14 17 17 16 15 16 16 17 17 18 16 15 15 13 14 13 12 12 14 14 12 12 13 14 11 10 13 14 15 12 11 13 14 16 11 7 9 11 13 13 13 13 12 11 12 11 8 11 12 10 8 10 12 11 10 11 11 10 10 10 8 8 6 5 5 4 7 7 7 6 6 7 8 7 7 6 6 9 10 8 8 9 11 17 19
14 15 17 16 16 17 16 16 16 17 17 16 14 13 12 12 13 13 12 12 13 13 14 13 13 12 10 12 13 15 13 12 14 15 9 11 10 9 11 12 12 12 13 12 11 12 13 14 14 15 13 9 8 8 9 9 9 10 9 6 6 7 7 7 6 4 4 5 6 5 7 6 8 8 8 7 6 9 9 9 8 9 9 12 17
15 16 17 17 17 17 17 18 17 17 16 15 15 13 13 14 12 13 14 12 12 13 13 12 13 13 15 14 13 15 16 16 14 13 10 10 10 8 11 12 13 14 13 14 16 16 15 14 12 12 16 13 11 8 10 10 11 8 8 8 8 5 5 7 7 6 4 3 4 7 6 6 6 9 9 6 7 9 9 9 9 8 8 8 11
17 17 17 17 18 19 18 17 16 16 17 17 16 15 13 12 13 13 13 12 12 11 12 13 13 14 15 14 13 14 15 14 13 12 11 12 11 11 12 11 13 13 14 16 16 14 13 13 13 10 9 14 11 13 10 13 10 13 12 7 7 5 5 4 5 5 5 3 3 6 7 8 8 9 8 8 7 10 10 9 9 9 8 9 9
17 17 17 19 18 17 16 18 17 18 17 16 15 15 15 14 14 14 14 13 11 10 11 11 13 14 14 14 13 13 14 13 14 13 14 13 13 12 13 13 13 14 13 16 13 14 14 15 14 14 12 9 10 12 15 15 13 9 11 12 7 6 1 2 3 2 3 4 3 6 8 8 9 10 9 8 5 8 9 10 10 9 8 9 9
16 16 17 18 15 15 18 18 18 18 17 17 15 17 18 17 16 14 15 14 14 12 12 10 11 13 14 13 14 13 13 14 19 17 14 14 15 14 15 14 15 13 13 13 13 14 15 16 16 17 16 12 10 12 14 13 12 15 12 12 9 9 5 6 6 1 2 3 2 6 7 11 10 7 8 11 9 9 9 9 11 11 10 9 9
16 16 16 17 14 19 19 19 18 19 18 17 19 18 17 16 14 14 14 14 12 11 11 10 8 10 12 11 11 13 16 15 17 16 15 15 14 13 15 15 15 15 12 12 16 17 17 17 18 16 17 18 16 14 13 12 14 15 15 9 5 7 12 7 9 2 1 3 1 2 6 8 8 9 8 10 10 11 10 9 10 10 10 10 8
19 18 18 18 20 19 21 21 18 17 19 20 19 18 16 16 15 14 15 13 15 13 12 14 14 12 13 14 13 12 13 15 15 17 13 13 14 14 14 14 13 12 11 12 16 13 16 17 17 15 17 14 16 13 14 9 12 13 11 8 10 15 16 11 12 5 2 3 2 2 6 6 5 6 6 8 11 10 10 10 10 10 10 9 9
20 19 19 20 22 22 22 22 20 18 17 19 21 17 18 16 17 16 14 15 17 13 12 13 13 12 11 13 13 13 12 13 13 15 17 17 16 13 13 14 14 15 15 14 13 14 10 12 15 17 17 15 15 16 19 13 10 12 10 5 6 6 13 19 15 9 6 1 2 2 5 4 5 4 7 6 9 11 11 11 11 10 9 8 9
22 21 20 20 23 24 24 24 20 19 19 19 20 19 18 18 18 17 15 15 15 18 16 13 13 12 12 13 11 10 12 12 13 13 16 18 18 17 15 14 14 13 12 15 15 14 14 14 17 19 16 16 18 18 19 15 17 15 12 8 8 10 15 8 5 13 11 10 3 1 5 4 4 4 2 4 7 8 11 10 11 10 9 9 8
21 21 21 22 23 24 24 24 25 23 21 23 20 20 19 19 18 16 17 14 14 14 15 13 13 12 14 11 10 10 11 13 12 13 15 15 12 14 15 14 15 15 14 14 16 18 20 18 16 13 16 14 15 15 16 18 17 14 13 9 11 11 9 3 10 6 8 10 7 9 8 3 5 4 2 3 3 3 7 9 10 11 10 9 9
20 21 23 22 24 25 26 26 27 23 22 24 22 22 22 20 19 18 19 17 14 14 14 16 14 12 12 12 10 9 8 11 12 13 14 15 17 15 15 16 17 15 14 14 15 18 19 18 17 18 17 17 13 14 15 16 15 12 11 9 11 12 11 7 6 10 6 11 13 12 12 12 10 1 2 3 3 3 6 6 6 7 8 8 8
20 20 19 21 21 23 25 29 26 23 23 24 24 24 22 20 19 19 20 20 18 17 15 15 15 13 12 12 10 9 8 10 11 11 12 14 17 17 17 16 16 15 16 16 15 18 19 14 17 20 19 19 15 14 12 12 11 9 9 10 12 16 17 17 14 12 10 5 9 11 10 11 13 11 2 3 3 2 3 6 6 6 7 7 6
Wind_Direction
193 200 197 130 152 192 183 187 192 197 202 200 202 211 211 211 210 208 210 210 209 206 204 202 199 201 207 210 216 215 203 207 217 220 224 222 227 231 233 239 250 256 257 258 255 251 250 249 248 241 236 227 206 198 204 205 208 203 195 213 182 168 159 153 152 148 141 144 141 133 131 132 132 131 131 128 127 126 127 134 140 123 117 121 121
114 184 194 147 154 216 193 189 196 201 207 203 208 212 212 208 210 210 209 212 215 215 214 212 209 208 210 215 221 226 228 224 221 220 222 226 226 234 236 238 242 249 253 255 256 254 249 249 249 246 240 231 215 202 200 202 209 195 203 173 222 173 164 165 145 128 132 139 142 134 131 132 133 132 132 131 131 135 144 152 130 125 119 122 121
325 184 185 165 150 198 244 199 200 204 207 203 209 215 215 212 213 212 208 208 214 219 221 221 220 217 218 224 227 231 233 233 235 235 231 228 228 230 236 236 237 242 247 250 254 254 251 248 248 247 244 237 218 197 201 202 203 207 193 185 200 184 178 163 139 135 139 142 135 129 124 131 133 134 136 134 136 133 51 90 124 116 125 122 119
267 216 202 136 155 176 217 223 212 212 207 206 209 214 214 216 222 223 216 214 217 220 222 227 230 228 230 232 236 235 235 237 235 240 242 238 235 233 227 231 234 238 240 242 246 251 253 249 247 246 245 240 194 201 202 203 198 202 201 195 193 183 175 153 136 138 140 139 137 136 141 134 132 136 137 137 136 109 57 128 116 117 126 126 123
253 243 212 170 176 178 215 222 228 214 217 209 211 216 217 216 222 227 228 222 221 224 226 229 233 238 236 239 241 240 241 242 241 237 239 238 239 237 227 224 229 233 235 237 238 244 250 252 248 246 246 241 197 203 205 200 190 201 198 207 186 182 171 151 139 138 138 150 154 167 151 145 137 142 141 139 125 90 120 118 122 128 126 126 126
235 250 228 217 193 191 193 215 224 223 215 217 216 216 220 223 223 232 233 230 228 231 233 234 238 243 240 239 240 240 238 240 241 240 242 232 236 238 229 224 227 232 236 237 236 238 244 248 249 247 244 243 199 207 200 197 195 195 191 218 190 174 167 151 144 140 145 158 184 186 156 150 142 144 145 140 127 121 120 125 128 128 131 130 130
242 266 254 220 205 201 179 211 220 230 220 217 219 221 223 228 229 233 237 234 235 241 244 244 240 240 241 239 241 244 245 252 250 238 247 247 241 238 238 233 231 235 238 239 241 239 240 244 247 246 244 240 189 197 194 193 199 197 189 203 187 169 158 152 147 146 153 171 196 190 158 160 144 143 150 145 134 130 132 135 134 137 136 135 129
243 250 261 239 226 179 173 195 219 229 234 219 218 220 224 228 232 234 237 237 238 243 246 249 246 243 242 243 245 243 246 243 247 248 240 245 247 241 241 240 235 236 238 241 243 246 246 244 244 245 244 229 189 195 195 194 192 194 202 194 180 160 156 152 149 156 164 178 197 178 165 158 147 145 155 151 145 146 146 139 142 141 139 135 127
230 237 249 259 243 97 171 194 213 231 243 229 220 221 223 229 233 235 238 237 239 244 247 248 247 249 245 246 249 249 244 252 260 275 270 240 262 269 259 250 245 244 242 241 240 241 245 246 245 244 244 229 194 197 200 196 193 196 198 188 170 155 153 153 154 162 177 194 188 176 171 162 155 149 155 157 154 152 148 144 139 137 138 131 137
233 223 233 251 264 121 119 233 223 237 244 239 227 226 227 230 232 235 238 240 241 243 248 249 249 250 249 249 248 248 250 238 251 251 251 249 251 260 267 267 261 250 250 251 246 244 244 242 244 242 245 240 209 205 197 193 186 197 202 175 159 156 153 153 158 172 185 207 189 173 166 169 158 154 158 162 160 156 150 149 143 146 144 142 143
241 227 219 233 252 75 193 220 254 254 249 250 244 228 231 233 234 234 237 239 240 243 246 248 250 250 251 250 250 250 239 232 241 249 243 239 242 248 255 260 264 260 251 250 253 250 248 244 238 240 244 238 209 201 194 186 181 181 189 153 150 151 151 154 162 183 200 201 192 182 157 172 161 156 162 164 163 153 140 125 120 128 142 149 136
262 234 229 225 199 115 151 232 242 250 254 257 256 239 236 237 239 239 239 240 242 243 243 246 249 251 252 252 252 254 231 229 242 242 243 240 241 248 254 256 257 259 256 254 256 260 255 249 240 238 242 222 208 204 198 182 178 176 168 157 158 156 163 160 174 184 211 199 190 179 168 185 173 157 162 164 159 154 145 142 142 142 146 139 139
291 261 245 237 237 160 169 231 239 245 246 249 252 249 242 241 241 242 242 242 243 246 246 247 247 249 251 253 257 257 240 232 241 244 243 241 242 244 247 253 255 257 258 259 259 260 259 251 244 239 239 212 205 201 203 185 182 182 176 163 157 153 175 167 187 201 201 206 179 183 176 192 172 149 167 161 158 156 155 151 147 147 132 134 134
285 274 255 257 254 150 171 221 241 243 244 245 244 247 249 249 247 247 246 245 246 246 249 247 248 248 249 251 252 251 247 237 244 249 248 246 247 245 246 250 254 256 258 261 264 264 262 256 247 243 235 197 199 201 200 190 188 189 174 160 166 168 179 177 188 210 206 200 171 183 183 183 143 152 165 162 160 158 157 153 149 135 145 142 140
286 282 271 266 263 255 186 218 239 249 255 249 244 248 249 251 255 256 252 249 249 249 247 247 249 249 248 249 248 244 241 235 245 251 252 253 249 244 245 248 252 257 259 261 264 269 267 262 249 243 208 194 193 196 193 185 185 186 177 164 173 169 172 179 195 207 202 189 179 183 184 175 141 160 164 165 164 157 156 149 138 148 148 140 134
300 294 289 269 268 268 240 202 225 242 253 258 260 255 254 252 253 255 256 255 254 250 249 248 246 250 249 248 246 240 235 232 240 245 251 253 251 247 248 249 251 255 259 260 262 265 271 270 259 237 192 199 201 195 191 186 186 188 182 164 165 171 175 178 194 202 191 186 180 181 162 136 149 161 164 163 163 155 145 139 142 145 139 140 135
305 302 290 286 280 270 265 251 216 220 244 258 259 260 260 258 259 258 256 255 255 253 250 250 244 242 247 245 244 237 226 228 236 245 250 253 252 248 248 250 252 254 258 262 268 273 270 267 261 231 190 197 200 195 189 186 182 184 168 164 161 166 179 207 201 204 188 184 173 176 156 140 159 162 161 160 152 155 140 142 142 143 150 138 132
281 281 282 283 277 270 267 268 258 206 226 234 249 257 259 253 255 259 261 262 260 252 250 250 245 240 238 235 234 225 226 228 233 240 246 250 254 251 249 251 253 257 258 264 270 273 271 265 255 220 198 200 195 198 192 187 182 179 167 161 158 163 156 194 275 210 188 180 175 161 164 153 162 165 158 151 159 159 141 140 141 142 141 134 132
250 252 267 277 282 279 275 269 263 265 248 239 237 226 232 243 247 251 256 259 259 258 255 252 246 242 228 223 226 225 228 230 233 234 241 244 262 268 255 251 258 261 261 269 269 271 271 264 242 212 201 194 190 198 198 190 186 169 165 162 159 155 165 177 216 215 184 185 173 160 155 149 165 166 158 158 160 161 145 144 140 144 142 138 134
290 274 277 270 269 280 284 283 275 266 261 262 257 258 225 222 234 240 247 253 254 255 250 248 246 240 222 211 211 221 224 233 227 231 230 237 248 252 244 245 255 258 267 268 269 265 262 259 239 212 197 196 198 193 203 190 178 167 165 161 156 156 170 185 183 149 153 166 156 148 138 157 164 165 159 157 160 157 145 141 144 147 140 136 134
1 351 339 335 326 307 298 291 287 281 277 271 267 263 263 234 222 229 239 246 256 254 250 244 242 231 217 208 211 213 232 234 220 223 221 224 228 223 237 236 244 241 255 255 251 253 253 249 230 219 203 195 201 197 212 200 170 163 162 156 152 161 170 177 154 152 139 144 118 124 147 162 168 164 158 160 159 154 150 147 141 142 139 136 136
7 358 358 352 345 335 320 310 300 290 284 275 270 261 260 255 256 249 231 233 239 248 247 241 235 238 207 216 218 229 230 239 242 217 215 215 208 204 211 214 203 180 285 261 243 237 238 236 210 215 185 172 161 148 132 143 140 126 124 131 156 167 163 160 158 150 146 140 114 137 155 163 167 164 160 157 163 158 152 142 141 141 137 138 135
8 3 2 359 353 343 336 323 312 308 300 287 274 273 271 266 261 250 250 231 231 227 237 235 238 235 235 227 231 234 233 239 237 231 226 203 205 182 196 196 179 155 227 265 244 225 223 218 194 184 166 153 149 148 145 133 142 137 138 150 163 164 150 144 142 147 150 133 128 148 154 167 168 165 160 163 163 153 142 143 143 145 144 143 137
10 8 1 3 359 351 346 337 329 317 307 301 293 284 279 272 264 257 249 248 241 233 231 235 235 234 235 234 233 233 233 234 193 133 143 183 152 168 182 179 173 188 238 255 223 229 218 204 185 175 166 152 154 151 151 150 151 152 155 160 160 158 160 161 155 150 136 130 140 155 155 164 165 168 163 166 158 150 150 149 142 141 139 135 134
10 5 5 6 2 357 352 344 335 325 319 310 298 291 288 283 277 266 260 257 251 243 233 233 234 234 232 235 234 231 230 230 194 182 187 206 196 176 177 191 196 205 223 235 243 217 207 190 182 169 178 164 157 152 146 147 154 159 168 168 154 149 163 162 152 150 141 138 150 156 151 162 170 169 165 161 152 157 150 143 140 138 139 135 134
8 10 5 3 1 358 354 349 340 336 326 315 309 304 299 286 278 277 272 262 262 257 250 241 234 233 232 228 232 232 227 224 217 203 210 212 212 195 189 202 209 210 208 220 177 169 140 114 132 122 61 342 151 143 142 151 154 160 165 164 150 152 165 159 167 152 142 139 149 151 152 171 173 167 164 160 155 155 154 148 145 146 142 136 137
9 8 3 1 359 359 358 354 353 343 333 322 311 304 297 291 286 278 278 272 263 263 258 251 242 237 231 226 226 226 229 226 219 212 195 206 212 203 184 181 195 216 212 190 160 161 139 129 116 113 100 69 36 113 126 147 153 152 153 143 142 154 160 161 161 149 136 142 151 148 153 159 169 167 167 168 161 159 153 150 148 146 144 142 140
6 6 5 1 357 356 357 354 355 352 343 335 325 314 307 300 292 282 275 274 273 268 266 259 254 245 238 232 222 229 224 226 224 211 204 209 208 208 190 176 191 207 240 162 157 152 134 128 117 117 122 115 91 72 92 85 89 113 129 135 142 151 154 155 155 138 136 142 146 148 151 171 174 171 162 168 163 160 155 155 147 143 143 142 139
6 5 2 0 357 353 355 354 354 355 349 340 329 322 313 304 297 290 280 274 270 264 260 267 262 256 248 232 212 238 242 234 233 214 203 205 205 205 194 167 176 188 188 177 167 147 141 138 129 128 117 115 110 97 80 90 81 81 106 111 118 119 137 152 151 136 138 139 141 149 150 154 156 161 159 162 152 145 146 146 148 144 141 143 143
1 0 2 0 355 352 354 352 352 353 346 342 339 328 319 309 304 296 288 279 271 266 259 259 265 265 256 241 232 220 229 236 226 219 209 203 201 192 170 148 175 172 237 185 174 163 149 143 128 123 123 125 121 126 111 90 105 83 59 101 101 110 119 126 151 130 134 134 135 144 146 152 160 153 162 163 152 149 146 148 151 147 144 144 146
354 357 358 357 354 352 355 350 349 350 345 344 340 332 325 316 308 300 295 284 274 273 263 250 250 258 261 259 243 236 235 229 232 226 211 201 194 195 187 173 160 168 174 184 183 171 161 150 143 139 132 129 129 120 110 96 79 104 94 77 100 98 120 113 83 120 113 115 127 142 149 155 161 157 157 169 152 153 152 151 155 150 148 144 147
356 356 355 349 350 352 351 349 350 348 344 342 340 335 330 322 313 306 298 292 288 278 269 259 255 254 257 265 260 249 236 232 237 214 218 195 195 182 185 157 163 183 174 176 166 184 175 157 133 126 128 130 136 133 134 126 104 75 84 83 52 118 125 96 100 103 114 108 123 137 151 161 167 156 160 163 170 160 159 150 151 148 152 150 149
354 353 352 350 350 348 350 345 349 345 344 340 339 333 330 326 319 308 302 297 289 284 274 265 250 244 243 245 259 258 241 242 231 221 219 200 181 171 185 163 172 191 167 162 162 176 156 139 132 140 142 127 134 137 142 133 127 121 97 81 39 55 80 93 84 96 99 130 124 122 137 151 154 154 152 159 172 178 161 152 152 154 154 153 152
352 352 351 352 349 345 346 340 345 344 341 337 337 333 331 326 320 313 305 301 295 289 279 275 264 251 229 232 229 250 255 249 237 217 209 203 185 182 186 170 170 176 163 154 165 175 164 157 148 147 151 151 152 153 148 150 137 137 141 150 130 136 110 91 86 95 105 140 135 130 131 132 143 143 144 150 144 148 148 148 152 154 155 153 152
349 352 352 348 348 345 345 338 340 339 337 338 334 333 329 327 325 321 312 305 298 291 282 271 271 261 246 222 227 235 249 249 245 234 207 230 195 185 184 178 168 162 149 163 166 159 160 155 162 154 156 159 161 160 155 157 141 148 157 158 160 161 139 108 84 14 116 129 127 141 129 133 138 127 126 125 132 137 141 145 151 152 151 151 152
351 348 347 348 347 346 343 339 337 335 334 335 332 330 329 328 325 321 319 314 305 299 289 275 256 253 255 239 220 224 226 239 244 233 225 217 191 182 182 174 170 162 160 169 163 176 166 155 172 156 154 162 166 170 163 155 149 145 151 156 156 154 154 134 122 202 120 138 130 150 140 143 135 135 134 136 137 133 133 139 142 148 151 151 152
343 344 344 343 344 344 342 340 337 333 333 332 329 329 326 326 323 321 323 322 315 307 293 291 278 261 244 241 236 227 221 228 234 233 219 225 198 182 177 179 169 169 164 169 173 176 174 157 160 170 159 159 170 169 165 162 154 148 148 152 157 154 155 152 143 144 63 140 152 142 139 141 130 132 130 131 134 136 139 146 148 152 148 148 150
341 339 339 338 340 341 339 336 333 330 329 328 327 327 326 322 320 323 322 319 317 316 314 298 285 275 265 250 239 231 225 220 227 228 218 231 218 185 180 171 170 175 168 167 170 172 173 160 160 163 168 162 168 168 161 159 152 148 149 151 156 152 143 136 131 136 158 154 202 153 155 134 128 129 133 135 135 136 145 152 151 153 150 148 149
337 338 336 332 335 337 336 335 333 333 329 326 322 321 323 320 317 321 322 318 318 318 315 308 302 290 270 252 244 237 222 215 217 227 225 219 227 196 181 166 171 174 169 159 164 168 166 172 164 159 161 168 167 168 161 156 150 146 146 147 147 132 130 124 110 146 155 164 171 157 152 146 143 142 139 136 138 145 152 151 143 144 151 154 151
335 335 332 332 333 331 332 328 330 329 328 323 321 321 321 320 321 323 319 319 319 319 315 307 300 297 284 270 257 246 228 215 216 223 214 207 222 203 179 167 173 175 164 165 160 161 172 174 172 163 162 155 165 156 152 141 134 129 110 85 85 116 132 123 133 157 155 158 159 152 150 157 149 148 149 146 140 150 148 147 141 142 150 156 150
338 338 335 337 333 329 326 326 327 326 325 323 320 319 319 318 316 318 317 317 316 314 309 310 308 304 302 296 272 255 246 231 216 218 200 207 215 199 178 178 178 177 170 171 166 172 171 170 172 169 163 158 160 153 153 143 127 100 100 93 72 58 94 118 144 149 161 142 168 154 151 153 156 153 158 150 149 149 149 145 144 142 147 146 149
339 335 334 333 330 327 323 321 319 318 318 317 315 311 313 314 313 312 312 313 315 313 313 312 310 302 296 292 285 270 249 238 228 208 207 205 204 198 181 184 183 178 174 174 173 161 162 171 162 157 173 161 160 161 158 145 156 154 141 120 86 69 51 85 133 146 143 148 185 153 156 157 160 161 156 152 154 154 152 148 146 145 145 144 150
332 332 332 331 328 325 322 320 316 313 310 309 308 309 307 306 306 303 306 309 304 301 299 299 307 310 306 297 293 285 268 257 244 222 211 207 205 197 186 184 189 183 171 173 165 164 165 167 167 163 162 166 155 166 167 175 154 149 134 118 157 128 51 76 22 62 126 147 195 159 155 159 167 162 160 155 155 153 151 150 147 147 149 151 156
329 328 328 326 324 321 321 317 314 308 304 304 303 302 303 302 298 298 301 300 305 301 295 299 309 313 312 310 308 304 293 267 245 225 222 210 201 197 192 183 189 188 175 163 166 168 167 170 172 168 158 151 165 174 181 177 156 150 161 172 152 144 136 221 148 62 359 105 229 170 150 164 174 168 158 159 163 155 153 150 148 150 153 154 156
326 326 327 326 324 321 317 314 311 308 302 299 301 303 300 298 297 296 297 302 299 300 305 305 311 311 312 310 310 311 307 298 272 240 219 211 200 197 193 188 188 189 177 165 170 172 173 171 172 169 171 166 167 165 183 190 179 182 149 119 113 173 194 151 131 51 48 128 347 202 141 146 161 167 167 164 161 156 153 154 148 149 153 151 142
328 326 322 317 316 315 313 309 304 302 301 299 298 298 298 297 299 300 300 304 306 313 316 318 320 322 318 314 309 306 299 296 291 263 229 217 211 196 200 189 186 180 181 169 174 168 173 176 174 166 176 175 160 162 176 199 186 203 189 169 176 176 157 159 154 165 2 10 36 287 134 136 126 158 169 169 157 155 158 155 150 149 149 144 141
324 320 317 316 314 312 310 307 303 299 296 294 295 294 293 294 294 293 291 295 299 298 304 304 304 306 308 310 311 313 303 294 291 284 249 218 215 208 200 196 187 181 172 172 176 172 170 173 172 173 175 172 164 169 177 182 183 212 191 148 101 88 138 151 173 107 147 193 48 259 112 99 119 127 157 168 157 158 162 156 151 148 143 142 145
321 318 316 313 311 309 307 305 301 297 296 295 292 292 291 290 291 291 288 285 287 293 299 298 298 298 299 305 309 309 311 304 303 300 275 237 212 208 200 191 192 186 179 173 170 173 168 177 183 179 172 174 175 177 178 173 181 194 184 131 110 129 147 140 112 161 151 141 157 300 64 79 98 73 58 135 152 163 156 155 149 149 146 146 144
323 319 316 313 309 306 302 301 300 299 296 294 292 290 288 287 287 286 286 282 283 289 290 291 293 295 295 300 300 305 310 310 309 305 299 266 226 202 196 191 190 184 180 181 174 171 174 175 181 178 175 181 184 183 176 180 186 182 170 150 128 134 145 102 128 128 151 152 160 173 138 77 85 72 54 42 19 119 151 151 152 153 151 148 148
319 315 313 312 310 307 302 299 298 299 299 295 292 289 288 288 285 282 283 284 282 282 286 287 291 291 292 295 299 305 314 314 312 312 316 296 242 215 203 196 196 186 181 183 177 170 173 177 176 180 177 176 183 185 188 185 181 181 177 153 145 143 149 144 160 154 142 166 163 172 153 150 147 131 45 78 49 47 121 117 139 145 147 147 149
313 312 308 302 300 306 308 305 300 300 299 297 295 293 289 285 284 282 281 282 281 278 278 281 285 287 290 293 297 303 313 314 310 309 311 310 274 225 207 203 195 188 183 181 180 175 172 170 177 178 179 178 178 184 190 182 175 164 169 171 164 166 173 175 171 167 153 132 142 155 157 162 155 147 217 73 61 40 115 136 145 153 155 153 151